Tracking 19720 objects as of 25-Jun-2019
HD Live streaming from Space Station
objects crossing your sky now

PW-SAT2

Track PW-SAT2 now!
10-day predictions


NORAD ID: 43814
Int'l Code: 2018-099BJ
Perigee: 573.4 km
Apogee: 576.5 km
Inclination: 97.8 °
Period: 96.0 minutes
Semi major axis: 6945 km
RCS: Unknown
Launch date: December 3, 2018
Source: POLAND (POL)
Launch site: AIR FORCE WESTERN TEST RANGE (AFWTR)
aabbcc
Your satellite tracking list
Your tracking list is empty




NASA's NSSDC Master Catalog

Two Line Element Set (TLE):
1 43814U 18099BJ  19176.16486039  .00010309  00000-0  83963-3 0  9993
2 43814  97.7817 249.0520 0002194 320.7728  39.3238 14.99697496 29821
Source of the keplerian elements: AFSPC